TimeCDT,TemperatureF,Dew PointF,Humidity,Sea Level PressureIn,VisibilityMPH,Wind Direction,Wind SpeedMPH,Gust SpeedMPH,PrecipitationIn,Events,Conditions,WindDirDegrees,DateUTC
12:14 AM,53.6,17.6,24,29.88,10.0,South,11.5,18.4,N/A,,Overcast,170,2012-10-13 05:14:00
12:34 AM,53.6,17.6,24,29.87,10.0,South,12.7,-,N/A,,Overcast,170,2012-10-13 05:34:00
12:54 AM,55.4,24.8,31,29.86,10.0,South,11.5,-,N/A,,Overcast,180,2012-10-13 05:54:00
1:14 AM,55.4,37.4,51,29.86,10.0,South,18.4,24.2,N/A,,Overcast,190,2012-10-13 06:14:00
2:14 AM,53.6,39.2,58,29.85,10.0,SSW,12.7,21.9,N/A,,Overcast,200,2012-10-13 07:14:00
2:34 AM,53.6,39.2,58,29.83,10.0,SSW,11.5,18.4,N/A,,Overcast,200,2012-10-13 07:34:00
2:54 AM,53.6,39.2,58,29.81,10.0,South,12.7,17.3,N/A,,Overcast,180,2012-10-13 07:54:00
3:34 AM,51.8,39.2,62,29.78,10.0,South,5.8,-,N/A,,Overcast,170,2012-10-13 08:34:00
3:54 AM,51.8,39.2,62,29.78,10.0,SSE,5.8,-,N/A,,Overcast,160,2012-10-13 08:54:00
4:14 AM,51.8,39.2,62,29.80,10.0,South,6.9,-,N/A,,Overcast,170,2012-10-13 09:14:00
4:34 AM,51.8,39.2,62,29.78,10.0,SSE,5.8,9.2,N/A,,Overcast,150,2012-10-13 09:34:00
4:54 AM,50.0,39.2,66,29.77,10.0,SE,6.9,-,N/A,,Scattered Clouds,140,2012-10-13 09:54:00
5:34 AM,48.2,39.2,71,29.78,10.0,SSE,6.9,-,N/A,,Clear,150,2012-10-13 10:34:00
5:54 AM,48.2,39.2,71,29.76,10.0,SE,5.8,-,N/A,,Clear,140,2012-10-13 10:54:00
6:14 AM,46.4,39.2,76,29.75,10.0,SSE,5.8,-,N/A,,Clear,160,2012-10-13 11:14:00
6:34 AM,46.4,39.2,76,29.75,10.0,SE,5.8,-,N/A,,Clear,140,2012-10-13 11:34:00
6:54 AM,46.4,39.2,76,29.74,10.0,SE,5.8,-,N/A,,Clear,130,2012-10-13 11:54:00
7:14 AM,46.4,39.2,76,29.73,10.0,SE,6.9,-,N/A,,Clear,140,2012-10-13 12:14:00
7:54 AM,46.4,41.0,81,29.72,7.0,SSE,6.9,-,N/A,,Clear,150,2012-10-13 12:54:00
8:14 AM,48.2,42.8,82,29.71,7.0,SSE,8.1,-,N/A,,Clear,150,2012-10-13 13:14:00
8:54 AM,48.2,42.8,82,29.71,7.0,SSE,5.8,-,N/A,,Clear,150,2012-10-13 13:54:00
9:34 AM,50.0,42.8,76,29.71,7.0,Calm,Calm,-,N/A,,Mostly Cloudy,0,2012-10-13 14:34:00
9:54 AM,51.8,42.8,71,29.71,7.0,Calm,Calm,-,N/A,,Overcast,0,2012-10-13 14:54:00
10:14 AM,53.6,44.6,72,29.71,7.0,Calm,Calm,-,N/A,,Overcast,0,2012-10-13 15:14:00
10:54 AM,55.4,44.6,67,29.69,7.0,South,5.8,-,N/A,,Scattered Clouds,190,2012-10-13 15:54:00
11:14 AM,55.4,46.4,72,29.69,7.0,SSW,3.5,-,N/A,,Clear,200,2012-10-13 16:14:00
11:34 AM,57.2,46.4,67,29.69,7.0,South,5.8,-,N/A,,Clear,190,2012-10-13 16:34:00
11:54 AM,60.8,46.4,59,29.68,10.0,Calm,Calm,-,N/A,,Clear,0,2012-10-13 16:54:00
12:14 PM,59.0,46.4,63,29.68,7.0,SSW,4.6,-,N/A,,Clear,210,2012-10-13 17:14:00
12:34 PM,59.0,46.4,63,29.68,10.0,Calm,Calm,-,N/A,,Clear,0,2012-10-13 17:34:00
12:54 PM,57.2,46.4,67,29.69,10.0,SSW,5.8,-,N/A,,Mostly Cloudy,210,2012-10-13 17:54:00
1:13 PM,59.0,46.4,63,29.68,10.0,WSW,3.5,-,N/A,,Mostly Cloudy,250,2012-10-13 18:13:00
1:34 PM,59.0,46.4,63,29.68,7.0,Calm,Calm,-,N/A,,Scattered Clouds,0,2012-10-13 18:34:00
1:54 PM,59.0,46.4,63,29.67,7.0,Calm,Calm,-,N/A,Rain,Light Rain,0,2012-10-13 18:54:00
2:14 PM,59.0,46.4,63,29.67,7.0,Calm,Calm,-,N/A,,Clear,0,2012-10-13 19:14:00
2:34 PM,60.8,46.4,59,29.66,7.0,Calm,Calm,-,N/A,,Clear,0,2012-10-13 19:34:00
3:14 PM,64.4,44.6,49,29.66,10.0,West,3.5,-,N/A,,Clear,280,2012-10-13 20:14:00
3:33 PM,64.4,46.4,52,29.65,7.0,Calm,Calm,-,N/A,,Clear,0,2012-10-13 20:33:00
3:53 PM,64.4,46.4,52,29.66,10.0,Calm,Calm,-,N/A,,Clear,0,2012-10-13 20:53:00
4:14 PM,66.2,46.4,49,29.66,10.0,WSW,3.5,-,N/A,,Clear,240,2012-10-13 21:14:00
4:35 PM,64.4,46.4,52,29.66,10.0,WSW,3.5,-,N/A,,Unknown,240,2012-10-13 21:35:00
4:54 PM,64.4,46.4,52,29.66,10.0,Calm,Calm,-,N/A,,Clear,0,2012-10-13 21:54:00
5:13 PM,64.4,46.4,52,29.66,10.0,WNW,3.5,-,N/A,,Clear,290,2012-10-13 22:13:00
5:33 PM,64.4,44.6,49,29.67,10.0,North,3.5,-,N/A,,Clear,350,2012-10-13 22:33:00
5:53 PM,62.6,44.6,52,29.67,10.0,North,4.6,-,N/A,,Clear,360,2012-10-13 22:53:00
6:14 PM,60.8,44.6,55,29.68,7.0,Calm,Calm,-,N/A,,Clear,0,2012-10-13 23:14:00
6:33 PM,57.2,42.8,59,29.69,7.0,Calm,Calm,-,N/A,,Clear,0,2012-10-13 23:33:00
7:53 PM,51.8,42.8,71,29.71,10.0,Calm,Calm,-,N/A,,Clear,0,2012-10-14 00:53:00
8:13 PM,48.2,42.8,82,29.72,10.0,Calm,Calm,-,N/A,,Clear,0,2012-10-14 01:13:00
8:33 PM,46.4,41.0,81,29.74,10.0,Calm,Calm,-,N/A,,Clear,0,2012-10-14 01:33:00
9:13 PM,46.4,39.2,76,29.75,7.0,Calm,Calm,-,N/A,,Clear,0,2012-10-14 02:13:00
9:34 PM,44.6,39.2,81,29.75,7.0,Calm,Calm,-,N/A,,Clear,0,2012-10-14 02:34:00
9:53 PM,42.8,39.2,87,29.75,7.0,Calm,Calm,-,N/A,,Clear,0,2012-10-14 02:53:00
10:14 PM,42.8,39.2,87,29.76,7.0,Calm,Calm,-,N/A,,Clear,0,2012-10-14 03:14:00
10:33 PM,42.8,37.4,81,29.76,7.0,Calm,Calm,-,N/A,,Clear,0,2012-10-14 03:33:00
11:13 PM,41.0,37.4,87,29.77,7.0,Calm,Calm,-,N/A,,Clear,0,2012-10-14 04:13:00
11:33 PM,44.6,37.4,76,29.78,10.0,North,8.1,-,N/A,,Clear,10,2012-10-14 04:33:00